カタログに戻る

STARLINK-31329

運用中通信VLEO
NORAD 59169·PAYLOAD·🇺🇸 United States

打ち上げ Mar 4, 2024 から Cape Canaveral Space Force Station

Loading…

次のパス (今後24時間)

TLE

最新Source: CelesTrak SupGP

元期: Sep 14, 2026, 14:26 UTC

1 59169C 24044T   26257.60187500  .00046929  00000+0  16986-2 0  2571
2 59169  43.0004 120.3711 0001438 258.6370 138.5063 15.27578459    15

AllMySatでSTARLINK-31329をリアルタイム追跡

Download on the App Store